THA1227 VTBS-VTSB

Flight info

Callsign THA1227
Flight time 0h 56m
Altitude 32000
Route VANKO1G VANKO Y8 IKERA IKERA1B
Aircraft A320/M-SDE3FGHIRWY/LB1

Departure

Time 2026-05-06 01:42
Airport Suvarnabhumi Airport (VTBS)

Arrival

Time 2026-05-06 02:38
Airport Surat Thani Airport (VTSB)
Time Latitude Longitude Altitude Speed Heading
2026-05-06 01:29 13.70219 100.74694 8 ft 0 kts 104°
2026-05-06 01:37 13.70222 100.74683 8 ft 4 kts 104°
2026-05-06 01:37 13.70228 100.74656 10 ft 4 kts 102°
2026-05-06 01:37 13.70233 100.74628 11 ft 4 kts 98°
2026-05-06 01:38 13.70235 100.74601 8 ft 4 kts 86°
2026-05-06 01:38 13.70229 100.74577 10 ft 4 kts 39°
2026-05-06 01:38 13.70223 100.74572 10 ft 0 kts 14°
2026-05-06 01:40 13.70224 100.74572 10 ft 1 kts 14°
2026-05-06 01:40 13.70266 100.74575 8 ft 12 kts 356°
2026-05-06 01:40 13.70321 100.74499 8 ft 15 kts 284°
2026-05-06 01:40 13.70341 100.74384 9 ft 17 kts 269°
2026-05-06 01:41 13.70247 100.74288 9 ft 35 kts 198°
2026-05-06 01:41 13.69780 100.74163 7 ft 101 kts 194°
2026-05-06 01:41 13.68929 100.73941 10 ft 149 kts 194°
2026-05-06 01:41 13.67837 100.73654 325 ft 165 kts 194°
2026-05-06 01:42 13.66756 100.73366 993 ft 161 kts 194°
2026-05-06 01:42 13.65658 100.73072 1454 ft 170 kts 194°
2026-05-06 01:42 13.64453 100.72749 1770 ft 186 kts 195°
2026-05-06 01:42 13.63129 100.72394 2099 ft 203 kts 195°
2026-05-06 01:43 13.61691 100.72008 2377 ft 226 kts 194°
2026-05-06 01:43 13.60084 100.71578 2756 ft 247 kts 194°
2026-05-06 01:43 13.58402 100.71134 3522 ft 253 kts 193°
2026-05-06 01:43 13.56696 100.70699 4315 ft 257 kts 193°
2026-05-06 01:44 13.54949 100.70266 5130 ft 261 kts 193°
2026-05-06 01:44 13.53199 100.69696 5900 ft 267 kts 204°
2026-05-06 01:44 13.51595 100.68693 6682 ft 273 kts 218°
2026-05-06 01:44 13.50249 100.67312 7457 ft 276 kts 228°
2026-05-06 01:45 13.49000 100.65803 8266 ft 278 kts 229°
2026-05-06 01:45 13.47774 100.64255 9036 ft 281 kts 230°
2026-05-06 01:45 13.46536 100.62687 9754 ft 286 kts 230°
2026-05-06 01:45 13.45235 100.61091 10187 ft 301 kts 229°
2026-05-06 01:46 13.43815 100.59397 10363 ft 324 kts 228°
2026-05-06 01:46 13.42290 100.57600 10666 ft 340 kts 228°
2026-05-06 01:46 13.40719 100.55756 11205 ft 345 kts 228°
2026-05-06 01:46 13.39039 100.53976 11832 ft 349 kts 220°
2026-05-06 01:47 13.37198 100.52333 12438 ft 352 kts 220°
2026-05-06 01:47 13.35338 100.50673 13041 ft 356 kts 220°
2026-05-06 01:47 13.33462 100.48995 13634 ft 359 kts 220°
2026-05-06 01:47 13.31567 100.47295 14149 ft 363 kts 221°
2026-05-06 01:48 13.29659 100.45583 14683 ft 366 kts 221°
2026-05-06 01:48 13.27760 100.43879 15169 ft 369 kts 221°
2026-05-06 01:48 13.25799 100.42121 15701 ft 371 kts 221°
2026-05-06 01:48 13.23845 100.40376 16211 ft 374 kts 221°
2026-05-06 01:49 13.21875 100.38619 16720 ft 377 kts 221°
2026-05-06 01:49 13.19891 100.36847 17225 ft 380 kts 221°
2026-05-06 01:49 13.17920 100.35086 17722 ft 383 kts 221°
2026-05-06 01:49 13.15877 100.33256 18201 ft 386 kts 221°
2026-05-06 01:50 13.13873 100.31459 18615 ft 389 kts 221°
2026-05-06 01:50 13.11832 100.29627 19044 ft 391 kts 221°
2026-05-06 01:50 13.09777 100.27786 19476 ft 393 kts 221°
2026-05-06 01:50 13.07708 100.25936 19910 ft 396 kts 221°
2026-05-06 01:51 13.05624 100.24078 20349 ft 398 kts 221°
2026-05-06 01:51 13.03529 100.22208 20768 ft 401 kts 221°
2026-05-06 01:51 13.01421 100.20325 21185 ft 403 kts 221°
2026-05-06 01:51 12.99313 100.18417 21594 ft 406 kts 222°
2026-05-06 01:52 12.97264 100.16415 21988 ft 408 kts 224°
2026-05-06 01:52 12.95263 100.14336 22385 ft 411 kts 226°
2026-05-06 01:52 12.93283 100.12211 22783 ft 413 kts 226°
2026-05-06 01:52 12.91297 100.10062 23194 ft 415 kts 226°
2026-05-06 01:53 12.89292 100.07911 23563 ft 418 kts 226°
2026-05-06 01:53 12.87264 100.05770 23875 ft 420 kts 225°
2026-05-06 01:53 12.85215 100.03628 24184 ft 422 kts 225°
2026-05-06 01:53 12.83151 100.01483 24518 ft 424 kts 225°
2026-05-06 01:54 12.81099 99.99357 24829 ft 426 kts 225°
2026-05-06 01:54 12.79012 99.97193 25153 ft 428 kts 225°
2026-05-06 01:54 12.76915 99.95020 25470 ft 430 kts 225°
2026-05-06 01:54 12.74803 99.92832 25786 ft 432 kts 225°
2026-05-06 01:55 12.72682 99.90632 26088 ft 434 kts 225°
2026-05-06 01:55 12.70557 99.88426 26409 ft 436 kts 225°
2026-05-06 01:55 12.68418 99.86203 26712 ft 438 kts 225°
2026-05-06 01:55 12.66274 99.83974 27012 ft 440 kts 225°
2026-05-06 01:56 12.64120 99.81735 27289 ft 443 kts 225°
2026-05-06 01:56 12.61875 99.79616 27550 ft 445 kts 217°
2026-05-06 01:56 12.59259 99.77907 27826 ft 446 kts 206°
2026-05-06 01:56 12.56379 99.76738 28192 ft 445 kts 195°
2026-05-06 01:57 12.53347 99.76134 28584 ft 444 kts 185°
2026-05-06 01:57 12.50256 99.76050 28907 ft 445 kts 179°
2026-05-06 01:57 12.47146 99.76061 29242 ft 447 kts 179°
2026-05-06 01:57 12.44030 99.76070 29576 ft 449 kts 179°
2026-05-06 01:58 12.40901 99.76076 29894 ft 451 kts 179°
2026-05-06 01:58 12.37751 99.76077 30167 ft 453 kts 179°
2026-05-06 01:58 12.34634 99.76075 30420 ft 455 kts 180°
2026-05-06 01:58 12.31462 99.76073 30669 ft 457 kts 180°
2026-05-06 01:59 12.28277 99.76074 30908 ft 459 kts 180°
2026-05-06 01:59 12.25084 99.76078 31221 ft 459 kts 180°
2026-05-06 01:59 12.21896 99.76082 31587 ft 458 kts 180°
2026-05-06 01:59 12.18701 99.76085 31831 ft 460 kts 180°
2026-05-06 02:00 12.12359 99.76086 31926 ft 448 kts 180°
2026-05-06 02:00 12.06160 99.76086 31925 ft 444 kts 180°
2026-05-06 02:01 11.99988 99.76092 31920 ft 443 kts 180°
2026-05-06 02:01 11.93825 99.76101 31920 ft 443 kts 180°
2026-05-06 02:02 11.87659 99.76106 31920 ft 443 kts 180°
2026-05-06 02:02 11.81486 99.76113 31914 ft 443 kts 180°
2026-05-06 02:03 11.75317 99.76116 31916 ft 443 kts 180°
2026-05-06 02:03 11.69184 99.76122 31915 ft 443 kts 180°
2026-05-06 02:04 11.63012 99.76134 31915 ft 444 kts 180°
2026-05-06 02:04 11.56838 99.76144 31915 ft 444 kts 180°
2026-05-06 02:05 11.50663 99.76147 31918 ft 444 kts 180°
2026-05-06 02:05 11.44475 99.76152 31923 ft 444 kts 180°
2026-05-06 02:06 11.38303 99.76158 31922 ft 443 kts 180°
2026-05-06 02:06 11.32165 99.76163 31916 ft 443 kts 179°
2026-05-06 02:07 11.25995 99.76171 31914 ft 443 kts 180°
2026-05-06 02:07 11.19827 99.76174 31917 ft 443 kts 180°
2026-05-06 02:08 11.13675 99.75887 31915 ft 442 kts 190°
2026-05-06 02:08 11.07769 99.74168 31926 ft 441 kts 197°
2026-05-06 02:09 11.01906 99.72322 31923 ft 440 kts 197°
2026-05-06 02:09 10.96054 99.70497 31918 ft 440 kts 197°
2026-05-06 02:10 10.90207 99.68677 31912 ft 439 kts 197°
2026-05-06 02:10 10.84406 99.66864 31909 ft 439 kts 197°
2026-05-06 02:11 10.78557 99.65031 31908 ft 439 kts 197°
2026-05-06 02:11 10.72715 99.63194 31910 ft 439 kts 196°
2026-05-06 02:12 10.66876 99.61364 31908 ft 439 kts 196°
2026-05-06 02:12 10.63965 99.60457 31805 ft 435 kts 196°
2026-05-06 02:12 10.61101 99.59565 31565 ft 426 kts 196°
2026-05-06 02:13 10.58290 99.58687 31330 ft 420 kts 196°
2026-05-06 02:13 10.55506 99.57818 31093 ft 417 kts 196°
2026-05-06 02:13 10.52737 99.56952 30866 ft 416 kts 196°
2026-05-06 02:13 10.49978 99.56090 30636 ft 414 kts 196°
2026-05-06 02:14 10.47227 99.55232 30411 ft 413 kts 196°
2026-05-06 02:14 10.44485 99.54377 30181 ft 412 kts 196°
2026-05-06 02:14 10.41751 99.53525 29951 ft 411 kts 196°
2026-05-06 02:14 10.39021 99.52674 29690 ft 410 kts 195°
2026-05-06 02:15 10.36298 99.51825 29426 ft 409 kts 196°
2026-05-06 02:15 10.33586 99.50978 29158 ft 407 kts 196°
2026-05-06 02:15 10.30918 99.50144 28906 ft 405 kts 196°
2026-05-06 02:15 10.28241 99.49309 28626 ft 400 kts 196°
2026-05-06 02:16 10.25589 99.48483 28230 ft 397 kts 195°
2026-05-06 02:16 10.22954 99.47662 27832 ft 395 kts 195°
2026-05-06 02:16 10.20330 99.46843 27426 ft 393 kts 195°
2026-05-06 02:16 10.17726 99.46029 27025 ft 390 kts 196°
2026-05-06 02:17 10.15137 99.45219 26621 ft 388 kts 196°
2026-05-06 02:17 10.12559 99.44415 26212 ft 387 kts 195°
2026-05-06 02:17 10.10019 99.43625 25810 ft 385 kts 195°
2026-05-06 02:17 10.07422 99.42820 25380 ft 384 kts 195°
2026-05-06 02:18 10.04902 99.42038 24964 ft 383 kts 195°
2026-05-06 02:18 10.02324 99.41237 24529 ft 382 kts 195°
2026-05-06 02:18 9.99814 99.40455 24093 ft 382 kts 195°
2026-05-06 02:18 9.97274 99.39664 23659 ft 382 kts 195°
2026-05-06 02:19 9.94735 99.38873 23167 ft 382 kts 195°
2026-05-06 02:19 9.92205 99.38085 22709 ft 379 kts 195°
2026-05-06 02:19 9.89693 99.37305 22265 ft 376 kts 195°
2026-05-06 02:19 9.87193 99.36530 21824 ft 374 kts 195°
2026-05-06 02:20 9.82249 99.34991 20946 ft 370 kts 195°
2026-05-06 02:20 9.79794 99.34230 20507 ft 368 kts 195°
2026-05-06 02:20 9.77349 99.33472 20072 ft 367 kts 195°
2026-05-06 02:21 9.74915 99.32715 19635 ft 365 kts 196°
2026-05-06 02:21 9.72490 99.31958 19195 ft 364 kts 196°
2026-05-06 02:21 9.70073 99.31205 18766 ft 363 kts 195°
2026-05-06 02:21 9.67687 99.30466 18333 ft 362 kts 195°
2026-05-06 02:22 9.65292 99.29726 17969 ft 358 kts 195°
2026-05-06 02:22 9.62920 99.28990 17537 ft 355 kts 195°
2026-05-06 02:22 9.60565 99.28257 17114 ft 353 kts 195°
2026-05-06 02:22 9.58227 99.27528 16694 ft 350 kts 196°
2026-05-06 02:23 9.55903 99.26806 16275 ft 348 kts 196°
2026-05-06 02:23 9.53677 99.25854 15857 ft 348 kts 210°
2026-05-06 02:23 9.51758 99.24359 15431 ft 348 kts 225°
2026-05-06 02:23 9.50185 99.22498 15023 ft 347 kts 230°
2026-05-06 02:24 9.49166 99.21241 14740 ft 347 kts 230°
2026-05-06 02:24 9.47638 99.19355 14326 ft 346 kts 230°
2026-05-06 02:24 9.46113 99.17473 13909 ft 345 kts 230°
2026-05-06 02:24 9.44588 99.15596 13469 ft 345 kts 230°
2026-05-06 02:25 9.43070 99.13727 13033 ft 340 kts 230°
2026-05-06 02:25 9.41599 99.11913 12637 ft 327 kts 230°
2026-05-06 02:25 9.40184 99.10168 12244 ft 315 kts 229°
2026-05-06 02:25 9.38816 99.08487 11875 ft 304 kts 229°
2026-05-06 02:26 9.37477 99.06846 11506 ft 302 kts 228°
2026-05-06 02:26 9.36145 99.05212 11134 ft 300 kts 229°
2026-05-06 02:26 9.34819 99.03583 10769 ft 298 kts 229°
2026-05-06 02:26 9.33494 99.01953 10408 ft 301 kts 229°
2026-05-06 02:27 9.32166 99.00320 10187 ft 297 kts 229°
2026-05-06 02:27 9.30817 98.98761 9974 ft 292 kts 221°
2026-05-06 02:27 9.29218 98.97526 9696 ft 288 kts 210°
2026-05-06 02:27 9.27535 98.96442 9304 ft 285 kts 210°
2026-05-06 02:28 9.25870 98.95363 8743 ft 284 kts 211°
2026-05-06 02:28 9.24211 98.94287 8308 ft 282 kts 210°
2026-05-06 02:28 9.22580 98.93232 7977 ft 282 kts 210°
2026-05-06 02:28 9.20933 98.92163 7636 ft 281 kts 210°
2026-05-06 02:29 9.19282 98.91091 7298 ft 282 kts 210°
2026-05-06 02:29 9.17570 98.90127 6979 ft 280 kts 199°
2026-05-06 02:29 9.15768 98.89547 6843 ft 263 kts 193°
2026-05-06 02:29 9.14065 98.89041 6722 ft 247 kts 193°
2026-05-06 02:30 9.12449 98.88560 6417 ft 239 kts 193°
2026-05-06 02:30 9.10859 98.88090 6007 ft 237 kts 192°
2026-05-06 02:30 9.09255 98.87870 5672 ft 230 kts 173°
2026-05-06 02:30 9.07696 98.88180 5538 ft 228 kts 156°
2026-05-06 02:31 9.06320 98.88956 5232 ft 226 kts 138°
2026-05-06 02:31 9.05218 98.90057 4987 ft 218 kts 131°
2026-05-06 02:31 9.04199 98.91116 4863 ft 203 kts 132°
2026-05-06 02:31 9.03250 98.92096 4689 ft 188 kts 131°
2026-05-06 02:32 9.02353 98.93025 4313 ft 186 kts 131°
2026-05-06 02:32 9.01445 98.93967 4039 ft 188 kts 132°
2026-05-06 02:32 9.00536 98.94910 3789 ft 186 kts 132°
2026-05-06 02:32 8.99632 98.95844 3661 ft 186 kts 131°
2026-05-06 02:33 8.98792 98.96843 3601 ft 185 kts 116°
2026-05-06 02:33 8.98515 98.97664 3516 ft 183 kts 97°
2026-05-06 02:34 9.00610 99.01195 2900 ft 185 kts 46°
2026-05-06 02:34 9.01537 99.02098 2719 ft 184 kts 46°
2026-05-06 02:34 9.02460 99.03000 2548 ft 184 kts 46°
2026-05-06 02:34 9.03380 99.03900 2372 ft 183 kts 45°
2026-05-06 02:35 9.04258 99.04757 2202 ft 168 kts 45°
2026-05-06 02:35 9.05050 99.05526 2014 ft 153 kts 46°
2026-05-06 02:35 9.05807 99.06264 1801 ft 149 kts 46°
2026-05-06 02:35 9.06544 99.06982 1612 ft 146 kts 45°
2026-05-06 02:36 9.07267 99.07689 1426 ft 144 kts 45°
2026-05-06 02:36 9.07991 99.08400 1247 ft 146 kts 44°
2026-05-06 02:36 9.08722 99.09114 988 ft 146 kts 44°
2026-05-06 02:36 9.09447 99.09821 821 ft 145 kts 44°
2026-05-06 02:37 9.10181 99.10538 654 ft 146 kts 43°
2026-05-06 02:37 9.10899 99.11242 463 ft 145 kts 42°
2026-05-06 02:37 9.11622 99.11952 260 ft 145 kts 43°
2026-05-06 02:37 9.12341 99.12667 94 ft 146 kts 43°
2026-05-06 02:38 9.13047 99.13363 30 ft 130 kts 44°
2026-05-06 02:38 9.13490 99.13796 24 ft 40 kts 43°
2026-05-06 02:38 9.13580 99.13928 25 ft 13 kts 108°
2026-05-06 02:38 9.13537 99.13986 24 ft 11 kts 132°
2026-05-06 02:39 9.13477 99.14051 24 ft 14 kts 134°
2026-05-06 02:39 9.13453 99.14127 24 ft 12 kts 105°
2026-05-06 02:39 9.13411 99.14177 24 ft 0 kts 134°